Time,TemperatureF,DewpointF,PressureIn,WindDirection,WindDirectionDegrees,WindSpeedMPH,WindSpeedGustMPH,Humidity,HourlyPrecipIn,Conditions,Clouds,dailyrainin,SoftwareType,DateUTC
2013-06-26 00:04:00,56.7,54.1,29.82,West,270,0.0,0.0,91,0.00,,---,0.00,VWS V14.01,2013-06-26 07:04:00,
2013-06-26 00:09:00,56.5,53.9,29.85,West,270,0.0,0.0,91,0.00,,---,0.00,VWS V14.01,2013-06-26 07:09:00,
2013-06-26 00:14:00,56.5,53.9,29.85,West,270,0.0,0.0,91,0.00,,---,0.00,VWS V14.01,2013-06-26 07:14:00,
2013-06-26 00:19:00,56.5,54.2,29.85,WSW,248,0.0,0.0,92,0.00,,---,0.00,VWS V14.01,2013-06-26 07:19:00,
2013-06-26 00:24:00,56.5,54.2,29.85,WSW,248,0.0,0.0,92,0.00,,---,0.00,VWS V14.01,2013-06-26 07:24:00,
2013-06-26 00:29:00,56.3,54.0,29.85,WSW,248,0.0,0.0,92,0.00,,---,0.00,VWS V14.01,2013-06-26 07:29:00,
2013-06-26 00:34:00,56.3,54.0,29.85,WSW,248,0.0,0.0,92,0.00,,---,0.00,VWS V14.01,2013-06-26 07:34:00,
2013-06-26 00:39:00,56.3,54.3,29.85,WSW,248,0.0,0.0,93,0.00,,---,0.00,VWS V14.01,2013-06-26 07:39:00,
2013-06-26 00:44:00,56.3,54.3,29.85,WSW,248,0.0,0.0,93,0.00,,---,0.00,VWS V14.01,2013-06-26 07:44:00,
2013-06-26 00:49:00,56.3,54.3,29.85,WSW,248,0.0,0.0,93,0.00,,---,0.00,VWS V14.01,2013-06-26 07:49:00,
2013-06-26 00:54:00,56.3,54.3,29.85,WSW,248,0.0,0.0,93,0.00,,---,0.00,VWS V14.01,2013-06-26 07:54:00,
2013-06-26 00:59:00,56.5,54.5,29.85,ESE,112,0.0,0.0,93,0.00,,---,0.00,VWS V14.01,2013-06-26 07:59:00,
2013-06-26 01:05:00,56.5,54.5,29.85,NW,315,0.0,1.3,93,0.00,,---,0.00,VWS V14.01,2013-06-26 08:05:00,
2013-06-26 01:10:00,56.7,55.0,29.85,WNW,292,0.0,2.0,94,0.00,,---,0.00,VWS V14.01,2013-06-26 08:10:00,
2013-06-26 01:15:00,56.8,55.1,29.85,East,90,0.0,0.0,94,0.00,,---,0.00,VWS V14.01,2013-06-26 08:15:00,
2013-06-26 01:20:00,56.8,55.1,29.85,NNE,22,0.0,2.0,94,0.00,,---,0.00,VWS V14.01,2013-06-26 08:20:00,
2013-06-26 01:25:00,56.8,55.1,29.85,SSW,202,0.0,1.3,94,0.00,,---,0.00,VWS V14.01,2013-06-26 08:25:00,
2013-06-26 01:30:00,57.0,55.3,29.85,South,180,1.1,3.4,94,0.00,,---,0.00,VWS V14.01,2013-06-26 08:30:00,
2013-06-26 01:35:00,57.0,55.3,29.85,South,180,0.0,0.0,94,0.00,,---,0.00,VWS V14.01,2013-06-26 08:35:00,
2013-06-26 01:40:00,56.8,55.1,29.85,SW,225,0.0,0.0,94,0.00,,---,0.00,VWS V14.01,2013-06-26 08:40:00,
2013-06-26 01:45:00,56.8,55.1,29.85,SW,225,0.0,0.0,94,0.00,,---,0.00,VWS V14.01,2013-06-26 08:45:00,
2013-06-26 01:50:00,56.8,55.1,29.85,SW,225,0.0,0.0,94,0.00,,---,0.00,VWS V14.01,2013-06-26 08:50:00,
2013-06-26 01:55:00,56.8,55.4,29.85,South,180,0.0,0.0,95,0.00,,---,0.00,VWS V14.01,2013-06-26 08:55:00,
2013-06-26 02:00:00,56.8,55.4,29.85,WSW,248,0.0,0.0,95,0.00,,---,0.00,VWS V14.01,2013-06-26 09:00:00,
2013-06-26 02:05:00,56.8,55.4,29.85,SSW,202,0.0,0.0,95,0.00,,---,0.00,VWS V14.01,2013-06-26 09:05:00,
2013-06-26 02:10:00,56.8,55.4,29.85,SSW,202,0.0,0.0,95,0.00,,---,0.00,VWS V14.01,2013-06-26 09:10:00,
2013-06-26 02:15:00,56.8,55.4,29.85,SSW,202,0.0,0.0,95,0.00,,---,0.00,VWS V14.01,2013-06-26 09:15:00,
2013-06-26 02:20:00,56.8,55.4,29.85,SSW,202,0.0,0.0,95,0.00,,---,0.00,VWS V14.01,2013-06-26 09:20:00,
2013-06-26 02:25:00,56.8,55.4,29.88,SSE,158,0.0,0.0,95,0.00,,---,0.00,VWS V14.01,2013-06-26 09:25:00,
2013-06-26 02:30:00,56.8,55.4,29.88,South,180,0.0,0.0,95,0.00,,---,0.00,VWS V14.01,2013-06-26 09:30:00,
2013-06-26 02:35:00,56.8,55.4,29.88,SW,225,0.0,0.0,95,0.00,,---,0.00,VWS V14.01,2013-06-26 09:35:00,
2013-06-26 02:40:00,56.8,55.7,29.85,SW,225,0.0,0.0,96,0.00,,---,0.00,VWS V14.01,2013-06-26 09:40:00,
2013-06-26 02:46:00,56.8,55.7,29.85,SW,225,0.0,0.0,96,0.00,,---,0.00,VWS V14.01,2013-06-26 09:46:00,
2013-06-26 02:51:00,56.8,55.7,29.85,SW,225,0.0,0.0,96,0.00,,---,0.00,VWS V14.01,2013-06-26 09:51:00,
2013-06-26 02:56:00,56.8,55.7,29.85,SW,225,0.0,0.0,96,0.04,,---,0.04,VWS V14.01,2013-06-26 09:56:00,
2013-06-26 03:01:00,56.7,55.5,29.85,South,180,0.0,0.0,96,0.04,,---,0.04,VWS V14.01,2013-06-26 10:01:00,
2013-06-26 03:06:00,56.7,55.5,29.85,South,180,0.0,0.0,96,0.04,,---,0.04,VWS V14.01,2013-06-26 10:06:00,
2013-06-26 03:11:00,56.5,55.6,29.85,South,180,0.0,0.0,97,0.04,,---,0.04,VWS V14.01,2013-06-26 10:11:00,
2013-06-26 03:16:00,56.5,55.6,29.85,South,180,0.0,0.0,97,0.04,,---,0.04,VWS V14.01,2013-06-26 10:16:00,
2013-06-26 03:21:00,56.3,55.5,29.85,South,180,0.0,0.0,97,0.04,,---,0.04,VWS V14.01,2013-06-26 10:21:00,
2013-06-26 03:26:00,56.3,55.5,29.85,South,180,0.0,0.0,97,0.04,,---,0.04,VWS V14.01,2013-06-26 10:26:00,
2013-06-26 03:31:00,56.3,55.5,29.85,South,180,0.0,0.0,97,0.04,,---,0.04,VWS V14.01,2013-06-26 10:31:00,
2013-06-26 03:36:00,56.5,55.6,29.85,South,180,0.0,0.0,97,0.04,,---,0.04,VWS V14.01,2013-06-26 10:36:00,
2013-06-26 03:41:00,56.5,55.6,29.88,South,180,0.0,0.0,97,0.04,,---,0.04,VWS V14.01,2013-06-26 10:41:00,
2013-06-26 03:46:00,56.5,55.9,29.88,South,180,0.0,0.0,98,0.04,,---,0.04,VWS V14.01,2013-06-26 10:46:00,
2013-06-26 03:51:00,56.5,55.9,29.88,South,180,0.0,0.0,98,0.04,,---,0.04,VWS V14.01,2013-06-26 10:51:00,
2013-06-26 03:56:00,56.7,56.1,29.85,WNW,292,0.0,1.1,98,0.00,,---,0.04,VWS V14.01,2013-06-26 10:56:00,
2013-06-26 04:01:00,56.7,56.1,29.85,WSW,248,0.0,0.0,98,0.00,,---,0.04,VWS V14.01,2013-06-26 11:01:00,
2013-06-26 04:06:00,56.7,56.1,29.85,WSW,248,0.0,0.0,98,0.00,,---,0.04,VWS V14.01,2013-06-26 11:06:00,
2013-06-26 04:12:00,56.7,56.1,29.88,WSW,248,0.0,0.0,98,0.00,,---,0.04,VWS V14.01,2013-06-26 11:12:00,
2013-06-26 04:17:00,56.7,56.1,29.88,WSW,248,0.0,0.0,98,0.00,,---,0.04,VWS V14.01,2013-06-26 11:17:00,
2013-06-26 04:22:00,56.7,56.1,29.88,WSW,248,0.0,0.0,98,0.00,,---,0.04,VWS V14.01,2013-06-26 11:22:00,
2013-06-26 04:27:00,56.7,56.1,29.88,WSW,248,0.0,0.0,98,0.00,,---,0.04,VWS V14.01,2013-06-26 11:27:00,
2013-06-26 04:32:00,56.7,56.1,29.88,WSW,248,0.0,0.0,98,0.00,,---,0.04,VWS V14.01,2013-06-26 11:32:00,
2013-06-26 04:37:00,56.8,56.3,29.88,WSW,248,0.0,0.0,98,0.00,,---,0.04,VWS V14.01,2013-06-26 11:37:00,
2013-06-26 04:42:00,56.8,56.3,29.88,WSW,248,0.0,0.0,98,0.00,,---,0.04,VWS V14.01,2013-06-26 11:42:00,
2013-06-26 04:47:00,56.8,56.3,29.88,WSW,248,0.0,0.0,98,0.00,,---,0.04,VWS V14.01,2013-06-26 11:47:00,
2013-06-26 04:52:00,56.8,56.3,29.88,SSE,158,0.0,0.0,98,0.00,,---,0.04,VWS V14.01,2013-06-26 11:52:00,
2013-06-26 04:57:00,56.8,56.3,29.88,SSE,158,0.0,0.0,98,0.00,,---,0.04,VWS V14.01,2013-06-26 11:57:00,
2013-06-26 05:02:00,57.2,56.6,29.88,SSW,202,0.0,0.0,98,0.00,,---,0.04,VWS V14.01,2013-06-26 12:02:00,
2013-06-26 05:07:00,57.2,56.6,29.88,West,270,0.0,0.0,98,0.00,,---,0.04,VWS V14.01,2013-06-26 12:07:00,
2013-06-26 05:12:00,57.4,56.8,29.88,West,270,0.0,0.0,98,0.00,,---,0.04,VWS V14.01,2013-06-26 12:12:00,
2013-06-26 05:17:00,57.4,56.8,29.88,South,180,0.0,0.0,98,0.00,,---,0.04,VWS V14.01,2013-06-26 12:17:00,
2013-06-26 05:22:00,57.4,56.8,29.88,SSW,202,0.0,0.0,98,0.00,,---,0.04,VWS V14.01,2013-06-26 12:22:00,
2013-06-26 05:27:00,57.6,57.0,29.91,SSW,202,0.0,0.0,98,0.00,,---,0.04,VWS V14.01,2013-06-26 12:27:00,
2013-06-26 05:32:00,57.6,57.0,29.91,South,180,0.0,0.0,98,0.00,,---,0.04,VWS V14.01,2013-06-26 12:32:00,
2013-06-26 05:37:00,57.6,57.0,29.91,South,180,0.0,0.0,98,0.00,,---,0.04,VWS V14.01,2013-06-26 12:37:00,
2013-06-26 05:42:00,57.6,57.0,29.91,South,180,0.0,0.0,98,0.00,,---,0.04,VWS V14.01,2013-06-26 12:42:00,
2013-06-26 05:48:00,57.6,57.0,29.91,SSE,158,0.0,0.0,98,0.00,,---,0.04,VWS V14.01,2013-06-26 12:48:00,
2013-06-26 05:53:00,57.6,57.0,29.91,South,180,0.0,0.0,98,0.00,,---,0.04,VWS V14.01,2013-06-26 12:53:00,
2013-06-26 05:58:00,57.6,57.0,29.91,NNW,338,0.0,0.0,98,0.00,,---,0.04,VWS V14.01,2013-06-26 12:58:00,
2013-06-26 06:03:00,57.7,57.2,29.91,WSW,248,0.0,0.0,98,0.00,,---,0.04,VWS V14.01,2013-06-26 13:03:00,
2013-06-26 06:08:00,57.7,57.2,29.91,WSW,248,0.0,0.0,98,0.00,,---,0.04,VWS V14.01,2013-06-26 13:08:00,
2013-06-26 06:13:00,57.9,57.4,29.88,WSW,248,0.0,0.0,98,0.00,,---,0.04,VWS V14.01,2013-06-26 13:13:00,
2013-06-26 06:18:00,57.9,57.4,29.88,SSE,158,0.0,0.0,98,0.00,,---,0.04,VWS V14.01,2013-06-26 13:18:00,
2013-06-26 06:23:00,57.9,57.4,29.88,SSE,158,0.0,0.0,98,0.00,,---,0.04,VWS V14.01,2013-06-26 13:23:00,
2013-06-26 06:28:00,57.9,57.4,29.91,SSE,158,0.0,0.0,98,0.00,,---,0.04,VWS V14.01,2013-06-26 13:28:00,
2013-06-26 06:33:00,57.9,57.4,29.91,SSE,158,0.0,0.0,98,0.00,,---,0.04,VWS V14.01,2013-06-26 13:33:00,
2013-06-26 06:38:00,57.9,57.4,29.91,SSE,158,0.0,0.0,98,0.00,,---,0.04,VWS V14.01,2013-06-26 13:38:00,
2013-06-26 06:43:00,58.1,57.5,29.88,SSE,158,0.0,0.0,98,0.00,,---,0.04,VWS V14.01,2013-06-26 13:43:00,
2013-06-26 06:48:00,58.1,57.5,29.88,SSW,202,0.0,0.0,98,0.00,,---,0.04,VWS V14.01,2013-06-26 13:48:00,
2013-06-26 06:53:00,58.3,57.7,29.88,SSE,158,0.0,0.0,98,0.00,,---,0.04,VWS V14.01,2013-06-26 13:53:00,
2013-06-26 06:58:00,58.3,57.7,29.91,South,180,0.0,0.0,98,0.00,,---,0.04,VWS V14.01,2013-06-26 13:58:00,
2013-06-26 07:03:00,58.5,57.9,29.91,South,180,0.0,0.0,98,0.00,,---,0.04,VWS V14.01,2013-06-26 14:03:00,
2013-06-26 07:08:00,58.5,57.9,29.91,South,180,0.0,0.0,98,0.00,,---,0.04,VWS V14.01,2013-06-26 14:08:00,
2013-06-26 07:14:00,58.6,58.1,29.91,South,180,0.0,0.0,98,0.00,,---,0.04,VWS V14.01,2013-06-26 14:14:00,
2013-06-26 07:19:00,58.8,58.3,29.91,West,270,0.0,0.0,98,0.00,,---,0.04,VWS V14.01,2013-06-26 14:19:00,
2013-06-26 07:24:00,59.2,58.6,29.91,SE,135,0.9,0.9,98,0.00,,---,0.04,VWS V14.01,2013-06-26 14:24:00,
2013-06-26 07:29:00,59.4,58.8,29.91,SSW,202,1.6,2.0,98,0.00,,---,0.04,VWS V14.01,2013-06-26 14:29:00,
2013-06-26 07:34:00,59.5,59.0,29.91,South,180,0.0,0.0,98,0.00,,---,0.04,VWS V14.01,2013-06-26 14:34:00,
2013-06-26 07:39:00,59.7,59.2,29.91,South,180,0.0,0.0,98,0.00,,---,0.04,VWS V14.01,2013-06-26 14:39:00,
2013-06-26 07:44:00,60.1,59.5,29.91,SSW,202,0.0,0.0,98,0.00,,---,0.04,VWS V14.01,2013-06-26 14:44:00,
2013-06-26 07:49:00,60.4,59.9,29.91,SSE,158,0.0,0.0,98,0.00,,---,0.04,VWS V14.01,2013-06-26 14:49:00,
2013-06-26 07:54:00,60.6,60.1,29.94,NNW,338,0.0,0.9,98,0.00,,---,0.04,VWS V14.01,2013-06-26 14:54:00,
2013-06-26 07:59:00,61.0,60.1,29.94,West,270,0.0,0.0,97,0.00,,---,0.04,VWS V14.01,2013-06-26 14:59:00,
2013-06-26 08:04:00,61.0,59.8,29.94,SW,225,2.5,2.5,96,0.00,,---,0.04,VWS V14.01,2013-06-26 15:04:00,
2013-06-26 08:09:00,61.2,59.7,29.94,South,180,0.0,1.3,95,0.00,,---,0.04,VWS V14.01,2013-06-26 15:09:00,
2013-06-26 08:14:00,61.3,59.6,29.94,South,180,0.0,0.0,94,0.00,,---,0.04,VWS V14.01,2013-06-26 15:14:00,
2013-06-26 08:19:00,61.9,60.1,29.94,ESE,112,0.0,0.0,94,0.00,,---,0.04,VWS V14.01,2013-06-26 15:19:00,
2013-06-26 08:24:00,62.2,60.5,29.94,South,180,0.0,0.0,94,0.00,,---,0.04,VWS V14.01,2013-06-26 15:24:00,
2013-06-26 08:30:00,62.4,60.4,29.94,WNW,292,0.0,0.0,93,0.00,,---,0.04,VWS V14.01,2013-06-26 15:30:00,
2013-06-26 08:35:00,62.6,60.2,29.94,SW,225,0.0,0.9,92,0.00,,---,0.04,VWS V14.01,2013-06-26 15:35:00,
2013-06-26 08:40:00,63.0,60.3,29.94,North,0,0.0,0.0,91,0.00,,---,0.04,VWS V14.01,2013-06-26 15:40:00,
2013-06-26 08:45:00,63.0,59.7,29.94,SW,225,2.2,2.2,89,0.00,,---,0.04,VWS V14.01,2013-06-26 15:45:00,
2013-06-26 08:50:00,63.3,60.0,29.94,South,180,0.0,0.9,89,0.00,,---,0.04,VWS V14.01,2013-06-26 15:50:00,
2013-06-26 08:55:00,63.3,59.4,29.97,SW,225,0.0,2.5,87,0.00,,---,0.04,VWS V14.01,2013-06-26 15:55:00,
2013-06-26 09:00:00,63.3,58.4,29.97,SSW,202,0.9,1.1,84,0.00,,---,0.04,VWS V14.01,2013-06-26 16:00:00,
2013-06-26 09:05:00,63.5,58.2,29.97,SW,225,1.6,2.5,83,0.00,,---,0.04,VWS V14.01,2013-06-26 16:05:00,
2013-06-26 09:10:00,63.9,58.6,29.97,South,180,1.1,1.1,83,0.00,,---,0.04,VWS V14.01,2013-06-26 16:10:00,
2013-06-26 09:15:00,64.2,59.3,29.97,WSW,248,0.0,0.0,84,0.00,,---,0.04,VWS V14.01,2013-06-26 16:15:00,
2013-06-26 09:20:00,64.2,58.6,29.97,SSE,158,0.0,0.0,82,0.00,,---,0.04,VWS V14.01,2013-06-26 16:20:00,
2013-06-26 09:25:00,64.9,59.3,29.97,SW,225,1.6,1.6,82,0.00,,---,0.04,VWS V14.01,2013-06-26 16:25:00,
2013-06-26 09:30:00,65.1,59.5,29.97,South,180,1.6,1.6,82,0.00,,---,0.04,VWS V14.01,2013-06-26 16:30:00,
2013-06-26 09:35:00,65.5,59.8,29.97,SSW,202,0.0,0.9,82,0.00,,---,0.04,VWS V14.01,2013-06-26 16:35:00,
2013-06-26 09:40:00,66.0,60.0,29.97,South,180,0.0,2.7,81,0.00,,---,0.04,VWS V14.01,2013-06-26 16:40:00,
2013-06-26 09:45:00,66.0,59.0,29.97,South,180,3.4,4.9,78,0.00,,---,0.04,VWS V14.01,2013-06-26 16:45:00,
2013-06-26 09:50:00,65.7,57.5,29.97,SW,225,0.0,2.0,75,0.00,,---,0.04,VWS V14.01,2013-06-26 16:50:00,
2013-06-26 09:55:00,66.2,58.0,29.97,SSE,158,0.0,1.3,75,0.00,,---,0.04,VWS V14.01,2013-06-26 16:55:00,
2013-06-26 10:00:00,67.1,59.3,29.97,SSE,158,0.0,0.0,76,0.00,,---,0.04,VWS V14.01,2013-06-26 17:00:00,
2013-06-26 10:05:00,68.0,59.0,29.97,SSE,158,0.9,3.1,73,0.00,,---,0.04,VWS V14.01,2013-06-26 17:05:00,
2013-06-26 10:10:00,68.9,59.1,29.97,SSE,158,0.0,2.0,71,0.00,,---,0.04,VWS V14.01,2013-06-26 17:10:00,
2013-06-26 10:15:00,69.6,58.2,29.97,WSW,248,3.4,3.4,67,0.00,,---,0.04,VWS V14.01,2013-06-26 17:15:00,
2013-06-26 10:20:00,69.6,57.8,29.97,SSE,158,0.0,3.6,66,0.00,,---,0.04,VWS V14.01,2013-06-26 17:20:00,
2013-06-26 10:25:00,70.0,56.4,29.97,ENE,68,2.0,2.5,62,0.00,,---,0.04,VWS V14.01,2013-06-26 17:25:00,
2013-06-26 10:30:00,70.9,57.7,29.97,West,270,2.5,2.9,63,0.00,,---,0.04,VWS V14.01,2013-06-26 17:30:00,
2013-06-26 10:35:00,70.7,57.5,29.97,West,270,2.0,3.4,63,0.00,,---,0.04,VWS V14.01,2013-06-26 17:35:00,
2013-06-26 10:40:00,70.0,56.4,29.97,SSE,158,0.0,1.3,62,0.00,,---,0.04,VWS V14.01,2013-06-26 17:40:00,
2013-06-26 10:45:00,70.3,57.2,29.97,SSE,158,0.0,3.6,63,0.00,,---,0.04,VWS V14.01,2013-06-26 17:45:00,
2013-06-26 10:50:00,69.6,56.0,29.97,SSW,202,0.0,3.6,62,0.00,,---,0.04,VWS V14.01,2013-06-26 17:50:00,
2013-06-26 10:55:00,68.9,55.8,29.97,WSW,248,2.5,2.7,63,0.00,,---,0.04,VWS V14.01,2013-06-26 17:55:00,
2013-06-26 11:00:00,68.9,56.2,29.97,South,180,2.0,2.0,64,0.00,,---,0.04,VWS V14.01,2013-06-26 18:00:00,
2013-06-26 11:05:00,68.7,55.6,29.97,West,270,0.0,4.3,63,0.00,,---,0.04,VWS V14.01,2013-06-26 18:05:00,
2013-06-26 11:10:00,68.7,55.2,29.97,WSW,248,3.1,3.1,62,0.00,,---,0.04,VWS V14.01,2013-06-26 18:10:00,
2013-06-26 11:15:00,69.1,56.4,29.97,SSW,202,0.0,1.1,64,0.00,,---,0.04,VWS V14.01,2013-06-26 18:15:00,
2013-06-26 11:20:00,69.3,57.0,29.97,SSW,202,0.0,3.6,65,0.00,,---,0.04,VWS V14.01,2013-06-26 18:20:00,
2013-06-26 11:25:00,69.1,56.0,29.97,SSW,202,1.3,2.9,63,0.00,,---,0.04,VWS V14.01,2013-06-26 18:25:00,
2013-06-26 11:30:00,69.4,55.9,29.97,ESE,112,1.1,2.9,62,0.00,,---,0.04,VWS V14.01,2013-06-26 18:30:00,
2013-06-26 11:35:00,69.6,56.0,29.97,WSW,248,2.2,2.9,62,0.00,,---,0.04,VWS V14.01,2013-06-26 18:35:00,
2013-06-26 11:40:00,69.3,53.4,29.97,ESE,112,2.9,6.0,57,0.00,,---,0.04,VWS V14.01,2013-06-26 18:40:00,
2013-06-26 11:45:00,69.4,55.0,29.97,NNE,22,1.6,2.0,60,0.00,,---,0.04,VWS V14.01,2013-06-26 18:45:00,
2013-06-26 11:50:00,69.4,54.5,29.97,SW,225,1.6,4.0,59,0.00,,---,0.04,VWS V14.01,2013-06-26 18:50:00,
2013-06-26 11:55:00,69.1,53.7,29.97,NNE,22,6.0,6.0,58,0.00,,---,0.04,VWS V14.01,2013-06-26 18:55:00,
2013-06-26 12:00:00,68.9,53.5,29.97,SW,225,0.0,4.7,58,0.00,,---,0.04,VWS V14.01,2013-06-26 19:00:00,
2013-06-26 12:05:00,69.8,54.8,29.97,West,270,0.0,2.7,59,0.00,,---,0.04,VWS V14.01,2013-06-26 19:05:00,
2013-06-26 12:10:00,70.0,54.5,30.00,SSW,202,2.2,2.2,58,0.00,,---,0.04,VWS V14.01,2013-06-26 19:10:00,
2013-06-26 12:15:00,70.0,54.5,30.00,SSE,158,2.0,3.8,58,0.00,,---,0.04,VWS V14.01,2013-06-26 19:15:00,
2013-06-26 12:20:00,69.6,54.2,30.00,WSW,248,2.9,2.9,58,0.00,,---,0.04,VWS V14.01,2013-06-26 19:20:00,
2013-06-26 12:25:00,69.4,54.0,30.00,WSW,248,0.0,2.5,58,0.00,,---,0.04,VWS V14.01,2013-06-26 19:25:00,
2013-06-26 12:30:00,69.8,53.9,30.00,South,180,0.0,1.3,57,0.00,,---,0.04,VWS V14.01,2013-06-26 19:30:00,
2013-06-26 12:35:00,70.3,54.9,30.00,NNE,22,0.0,1.6,58,0.00,,---,0.04,VWS V14.01,2013-06-26 19:35:00,
2013-06-26 12:40:00,71.2,55.7,30.00,SSE,158,2.0,2.5,58,0.00,,---,0.04,VWS V14.01,2013-06-26 19:40:00,
2013-06-26 12:45:00,70.9,53.9,30.00,NNE,22,2.0,3.8,55,0.00,,---,0.04,VWS V14.01,2013-06-26 19:45:00,
2013-06-26 12:50:00,70.9,54.4,30.00,SW,225,2.9,2.9,56,0.00,,---,0.04,VWS V14.01,2013-06-26 19:50:00,
2013-06-26 12:55:00,70.7,54.2,30.00,SW,225,1.6,2.5,56,0.00,,---,0.04,VWS V14.01,2013-06-26 19:55:00,
2013-06-26 13:00:00,70.2,53.3,30.00,South,180,1.3,1.3,55,0.00,,---,0.04,VWS V14.01,2013-06-26 20:00:00,
2013-06-26 13:05:00,70.0,53.1,30.00,SW,225,0.0,0.9,55,0.00,,---,0.04,VWS V14.01,2013-06-26 20:05:00,
2013-06-26 13:10:00,70.9,54.9,30.00,WSW,248,0.0,0.0,57,0.00,,---,0.04,VWS V14.01,2013-06-26 20:10:00,
2013-06-26 13:15:00,70.9,54.4,30.00,South,180,0.0,2.2,56,0.00,,---,0.04,VWS V14.01,2013-06-26 20:15:00,
2013-06-26 13:20:00,70.2,53.8,30.00,SW,225,2.5,2.5,56,0.00,,---,0.04,VWS V14.01,2013-06-26 20:20:00,
2013-06-26 13:25:00,69.8,53.9,30.00,SW,225,1.3,1.3,57,0.00,,---,0.04,VWS V14.01,2013-06-26 20:25:00,
2013-06-26 13:30:00,69.3,53.4,30.00,SW,225,0.0,0.0,57,0.00,,---,0.04,VWS V14.01,2013-06-26 20:30:00,
2013-06-26 13:35:00,69.3,53.4,30.00,South,180,2.5,2.5,57,0.00,,---,0.04,VWS V14.01,2013-06-26 20:35:00,
2013-06-26 13:40:00,69.4,54.5,30.03,SSE,158,2.5,2.5,59,0.00,,---,0.04,VWS V14.01,2013-06-26 20:40:00,
2013-06-26 13:45:00,69.4,54.5,30.03,South,180,0.0,0.0,59,0.00,,---,0.04,VWS V14.01,2013-06-26 20:45:00,
2013-06-26 13:50:00,70.3,56.3,30.03,SSW,202,1.1,2.7,61,0.00,,---,0.04,VWS V14.01,2013-06-26 20:50:00,
2013-06-26 13:55:00,70.5,55.5,30.03,SW,225,1.1,3.6,59,0.00,,---,0.04,VWS V14.01,2013-06-26 20:55:00,
2013-06-26 14:00:00,70.2,54.7,30.03,SW,225,1.6,2.0,58,0.00,,---,0.04,VWS V14.01,2013-06-26 21:00:00,
2013-06-26 14:05:00,70.5,55.5,30.03,South,180,0.9,2.0,59,0.00,,---,0.04,VWS V14.01,2013-06-26 21:05:00,
2013-06-26 14:10:00,73.0,58.3,30.03,East,90,2.2,3.8,60,0.00,,---,0.04,VWS V14.01,2013-06-26 21:10:00,
2013-06-26 14:15:00,72.9,54.2,30.03,WSW,248,2.2,3.6,52,0.00,,---,0.04,VWS V14.01,2013-06-26 21:15:00,
2013-06-26 14:20:00,72.1,54.6,30.03,SSE,158,2.7,2.7,54,0.00,,---,0.04,VWS V14.01,2013-06-26 21:20:00,
2013-06-26 14:25:00,71.8,54.3,30.03,South,180,0.0,1.6,54,0.00,,---,0.04,VWS V14.01,2013-06-26 21:25:00,
2013-06-26 14:30:00,71.4,53.9,30.03,South,180,0.0,0.0,54,0.00,,---,0.04,VWS V14.01,2013-06-26 21:30:00,
2013-06-26 14:36:00,71.4,53.9,30.03,WSW,248,1.3,3.1,54,0.00,,---,0.04,VWS V14.01,2013-06-26 21:36:00,
2013-06-26 14:41:00,71.1,53.6,30.03,South,180,0.0,3.1,54,0.00,,---,0.04,VWS V14.01,2013-06-26 21:41:00,
2013-06-26 14:46:00,70.5,53.6,30.03,South,180,0.0,0.0,55,0.00,,---,0.04,VWS V14.01,2013-06-26 21:46:00,
2013-06-26 14:51:00,70.0,54.5,30.03,South,180,2.2,2.2,58,0.00,,---,0.04,VWS V14.01,2013-06-26 21:51:00,
2013-06-26 14:56:00,69.8,55.3,30.03,SSW,202,0.0,0.0,60,0.00,,---,0.04,VWS V14.01,2013-06-26 21:56:00,
2013-06-26 15:01:00,70.5,57.3,30.03,SSE,158,0.0,0.0,63,0.00,,---,0.04,VWS V14.01,2013-06-26 22:01:00,
2013-06-26 15:06:00,70.7,57.1,30.03,South,180,0.0,0.0,62,0.00,,---,0.04,VWS V14.01,2013-06-26 22:06:00,
2013-06-26 15:11:00,71.2,57.6,30.03,SW,225,1.3,2.0,62,0.00,,---,0.04,VWS V14.01,2013-06-26 22:11:00,
2013-06-26 15:16:00,71.2,57.1,30.03,SSW,202,0.0,0.0,61,0.00,,---,0.04,VWS V14.01,2013-06-26 22:16:00,
2013-06-26 15:21:00,71.4,57.3,30.03,South,180,0.0,1.1,61,0.00,,---,0.04,VWS V14.01,2013-06-26 22:21:00,
2013-06-26 15:26:00,72.0,56.9,30.03,SE,135,1.1,1.1,59,0.00,,---,0.04,VWS V14.01,2013-06-26 22:26:00,
2013-06-26 15:31:00,72.0,56.9,30.03,SSW,202,1.1,1.1,59,0.00,,---,0.04,VWS V14.01,2013-06-26 22:31:00,
2013-06-26 15:36:00,71.8,55.8,30.03,SW,225,0.0,2.5,57,0.00,,---,0.04,VWS V14.01,2013-06-26 22:36:00,
2013-06-26 15:41:00,72.0,56.9,30.03,SSW,202,0.0,2.5,59,0.00,,---,0.04,VWS V14.01,2013-06-26 22:41:00,
2013-06-26 15:46:00,72.0,56.9,30.03,SW,225,1.6,2.0,59,0.00,,---,0.04,VWS V14.01,2013-06-26 22:46:00,
2013-06-26 15:51:00,71.6,55.6,30.03,South,180,1.1,2.2,57,0.00,,---,0.04,VWS V14.01,2013-06-26 22:51:00,
2013-06-26 15:57:00,70.9,54.9,30.03,ESE,112,0.0,4.0,57,0.00,,---,0.04,VWS V14.01,2013-06-26 22:57:00,
2013-06-26 16:02:00,70.5,54.6,30.03,SW,225,0.9,2.2,57,0.00,,---,0.04,VWS V14.01,2013-06-26 23:02:00,
2013-06-26 16:07:00,70.7,54.7,30.03,SSE,158,1.3,2.7,57,0.00,,---,0.04,VWS V14.01,2013-06-26 23:07:00,
2013-06-26 16:12:00,70.7,54.2,30.03,South,180,0.0,2.5,56,0.00,,---,0.04,VWS V14.01,2013-06-26 23:12:00,
2013-06-26 16:17:00,71.1,55.5,30.03,SW,225,0.0,0.0,58,0.00,,---,30.11,VWS V14.01,2013-06-26 23:17:00,
2013-06-26 16:22:00,71.1,55.1,30.03,South,180,0.0,0.0,57,0.00,,---,30.11,VWS V14.01,2013-06-26 23:22:00,
2013-06-26 16:27:00,70.9,54.9,30.06,SSW,202,0.0,0.0,57,0.00,,---,30.11,VWS V14.01,2013-06-26 23:27:00,
2013-06-26 16:32:00,71.1,54.6,30.06,SSE,158,2.0,2.7,56,0.00,,---,30.11,VWS V14.01,2013-06-26 23:32:00,
2013-06-26 16:37:00,71.2,55.2,30.06,South,180,0.0,0.0,57,0.00,,---,30.11,VWS V14.01,2013-06-26 23:37:00,
2013-06-26 16:42:00,71.4,55.4,30.03,SSE,158,0.0,0.0,57,0.00,,---,30.11,VWS V14.01,2013-06-26 23:42:00,
2013-06-26 16:47:00,71.2,54.8,30.03,SW,225,0.0,0.9,56,0.00,,---,30.11,VWS V14.01,2013-06-26 23:47:00,
2013-06-26 16:52:00,71.6,54.6,30.03,SE,135,0.0,0.0,55,0.00,,---,30.11,VWS V14.01,2013-06-26 23:52:00,
2013-06-26 16:57:00,72.0,54.4,30.06,South,180,0.0,0.0,54,0.00,,---,30.11,VWS V14.01,2013-06-26 23:57:00,
2013-06-26 17:02:00,72.3,54.2,30.06,WSW,248,1.3,2.0,53,0.00,,---,30.11,VWS V14.01,2013-06-27 00:02:00,
2013-06-26 17:07:00,72.3,55.3,30.06,South,180,0.0,0.0,55,0.00,,---,30.11,VWS V14.01,2013-06-27 00:07:00,
2013-06-26 17:13:00,72.3,54.2,30.03,South,180,1.3,1.3,53,0.00,,---,30.11,VWS V14.01,2013-06-27 00:13:00,
2013-06-26 17:18:00,72.1,54.6,30.03,South,180,0.0,0.0,54,0.00,,---,30.11,VWS V14.01,2013-06-27 00:18:00,
2013-06-26 17:23:00,71.6,53.6,30.03,SW,225,0.0,0.0,53,0.00,,---,30.11,VWS V14.01,2013-06-27 00:23:00,
2013-06-26 17:28:00,71.6,54.1,30.00,SSE,158,0.0,0.0,54,0.00,,---,30.11,VWS V14.01,2013-06-27 00:28:00,
2013-06-26 17:33:00,71.4,53.4,30.00,South,180,0.9,1.3,53,0.00,,---,30.11,VWS V14.01,2013-06-27 00:33:00,
2013-06-26 17:38:00,71.2,53.8,30.00,South,180,0.0,1.1,54,0.00,,---,30.11,VWS V14.01,2013-06-27 00:38:00,
2013-06-26 17:43:00,71.1,53.6,30.03,SSE,158,0.0,0.0,54,0.00,,---,30.11,VWS V14.01,2013-06-27 00:43:00,
2013-06-26 17:48:00,70.9,53.4,30.03,SSE,158,1.3,2.0,54,0.00,,---,30.11,VWS V14.01,2013-06-27 00:48:00,
2013-06-26 17:53:00,70.9,52.9,30.03,SSE,158,0.0,0.0,53,0.00,,---,30.11,VWS V14.01,2013-06-27 00:53:00,
2013-06-26 17:58:00,70.9,53.4,30.03,SSE,158,0.0,0.9,54,0.00,,---,30.11,VWS V14.01,2013-06-27 00:58:00,
2013-06-26 18:03:00,70.7,53.8,30.03,SSE,158,0.0,0.0,55,0.00,,---,30.11,VWS V14.01,2013-06-27 01:03:00,
2013-06-26 18:08:00,70.7,53.3,30.03,South,180,2.5,2.5,54,0.00,,---,30.11,VWS V14.01,2013-06-27 01:08:00,
2013-06-26 18:13:00,70.2,52.8,30.03,South,180,0.0,2.0,54,0.00,,---,30.11,VWS V14.01,2013-06-27 01:13:00,
2013-06-26 18:15:00,70.0,52.6,30.03,South,180,0.0,0.0,54,0.00,,---,30.11,VWS V14.01,2013-06-27 01:15:00,
2013-06-26 18:20:00,70.0,53.1,30.03,WSW,248,1.3,1.3,55,0.00,,---,30.11,VWS V14.01,2013-06-27 01:20:00,
2013-06-26 18:25:00,69.6,53.2,30.03,South,180,0.0,0.0,56,0.00,,---,30.11,VWS V14.01,2013-06-27 01:25:00,
2013-06-26 18:31:00,69.4,53.6,30.03,South,180,0.0,0.0,57,0.00,,---,30.11,VWS V14.01,2013-06-27 01:31:00,
2013-06-26 18:36:00,69.6,54.7,30.03,South,180,0.0,0.0,59,0.00,,---,30.11,VWS V14.01,2013-06-27 01:36:00,
2013-06-26 18:41:00,69.6,55.1,30.03,South,180,0.0,0.0,60,0.00,,---,30.11,VWS V14.01,2013-06-27 01:41:00,
2013-06-26 18:46:00,69.6,55.1,30.03,South,180,0.0,0.0,60,0.00,,---,30.11,VWS V14.01,2013-06-27 01:46:00,
2013-06-26 18:51:00,69.4,55.0,30.03,SSE,158,0.0,1.1,60,0.00,,---,30.11,VWS V14.01,2013-06-27 01:51:00,
2013-06-26 18:56:00,69.1,55.1,30.03,South,180,0.0,0.0,61,0.00,,---,30.11,VWS V14.01,2013-06-27 01:56:00,
2013-06-26 19:01:00,69.1,55.5,30.03,South,180,0.0,0.0,62,0.00,,---,30.11,VWS V14.01,2013-06-27 02:01:00,
2013-06-26 19:06:00,69.1,56.0,30.03,South,180,0.0,0.0,63,0.00,,---,30.11,VWS V14.01,2013-06-27 02:06:00,
2013-06-26 19:11:00,68.7,56.1,30.03,South,180,0.0,0.0,64,0.00,,---,30.11,VWS V14.01,2013-06-27 02:11:00,
2013-06-26 19:16:00,68.5,55.9,30.03,South,180,0.0,0.0,64,0.00,,---,30.11,VWS V14.01,2013-06-27 02:16:00,
2013-06-26 19:21:00,68.4,56.2,30.03,South,180,0.0,0.0,65,0.00,,---,30.11,VWS V14.01,2013-06-27 02:21:00,
2013-06-26 19:26:00,68.2,56.4,30.00,South,180,0.0,0.0,66,0.00,,---,30.11,VWS V14.01,2013-06-27 02:26:00,
2013-06-26 19:31:00,67.8,56.5,30.00,South,180,0.0,0.0,67,0.00,,---,30.11,VWS V14.01,2013-06-27 02:31:00,
2013-06-26 19:36:00,67.6,56.7,30.00,South,180,0.0,0.0,68,0.00,,---,30.11,VWS V14.01,2013-06-27 02:36:00,
2013-06-26 19:41:00,67.5,56.5,30.00,South,180,0.0,0.0,68,0.00,,---,30.11,VWS V14.01,2013-06-27 02:41:00,
2013-06-26 19:46:00,67.3,56.8,30.00,SSE,158,0.0,0.0,69,0.00,,---,30.11,VWS V14.01,2013-06-27 02:46:00,
2013-06-26 19:51:00,67.1,57.0,30.00,SSE,158,0.0,0.0,70,0.00,,---,30.11,VWS V14.01,2013-06-27 02:51:00,
2013-06-26 19:57:00,66.9,57.2,30.03,SSE,158,0.0,0.0,71,0.00,,---,30.11,VWS V14.01,2013-06-27 02:57:00,
2013-06-26 20:02:00,66.7,57.0,30.03,SSE,158,0.0,0.0,71,0.00,,---,30.11,VWS V14.01,2013-06-27 03:02:00,
2013-06-26 20:07:00,66.6,57.3,30.03,SSE,158,0.0,0.0,72,0.00,,---,30.11,VWS V14.01,2013-06-27 03:07:00,
2013-06-26 20:12:00,66.4,57.5,30.00,SSE,158,0.0,0.0,73,0.00,,---,30.11,VWS V14.01,2013-06-27 03:12:00,
2013-06-26 20:17:00,66.0,57.9,30.00,SSE,158,0.0,0.0,75,0.00,,---,30.11,VWS V14.01,2013-06-27 03:17:00,
2013-06-26 20:22:00,66.0,57.9,30.00,SSE,158,0.0,0.0,75,0.00,,---,30.11,VWS V14.01,2013-06-27 03:22:00,
2013-06-26 20:27:00,65.7,57.5,30.03,SSE,158,0.0,0.0,75,0.00,,---,30.11,VWS V14.01,2013-06-27 03:27:00,
2013-06-26 20:32:00,65.5,58.1,30.03,SSE,158,0.0,0.0,77,0.00,,---,30.11,VWS V14.01,2013-06-27 03:32:00,
2013-06-26 20:37:00,65.3,58.3,30.03,SSE,158,0.0,0.0,78,0.00,,---,30.11,VWS V14.01,2013-06-27 03:37:00,
2013-06-26 20:42:00,65.1,58.5,30.03,SSE,158,0.0,0.0,79,0.00,,---,30.11,VWS V14.01,2013-06-27 03:42:00,
2013-06-26 20:47:00,64.8,58.1,30.03,SSE,158,0.0,0.0,79,0.00,,---,30.11,VWS V14.01,2013-06-27 03:47:00,
2013-06-26 20:52:00,64.4,57.8,30.03,SSE,158,0.0,0.0,79,0.00,,---,30.11,VWS V14.01,2013-06-27 03:52:00,
2013-06-26 20:57:00,64.2,57.9,30.03,SW,225,0.0,0.0,80,0.00,,---,30.11,VWS V14.01,2013-06-27 03:57:00,
2013-06-26 21:01:00,63.9,57.9,30.03,SW,225,0.0,0.0,81,0.00,,---,30.11,VWS V14.01,2013-06-27 04:01:00,
2013-06-26 21:02:00,63.9,57.9,30.03,SW,225,0.0,0.0,81,0.00,,---,30.11,VWS V14.01,2013-06-27 04:02:00,
2013-06-26 21:07:00,63.7,58.1,30.03,SW,225,0.0,0.0,82,0.00,,---,30.11,VWS V14.01,2013-06-27 04:07:00,
2013-06-26 21:12:00,63.5,57.9,30.03,SW,225,0.0,0.0,82,0.00,,---,30.11,VWS V14.01,2013-06-27 04:12:00,
2013-06-26 21:17:00,63.5,58.2,30.03,SW,225,0.0,0.0,83,0.00,,---,30.11,VWS V14.01,2013-06-27 04:17:00,
2013-06-26 21:22:00,63.3,58.1,30.03,SW,225,0.0,0.0,83,0.00,,---,30.11,VWS V14.01,2013-06-27 04:22:00,
2013-06-26 21:27:00,63.1,58.2,30.03,SW,225,0.0,0.0,84,0.00,,---,30.11,VWS V14.01,2013-06-27 04:27:00,
2013-06-26 21:32:00,63.0,57.7,30.03,SSE,158,0.0,0.0,83,0.00,,---,30.11,VWS V14.01,2013-06-27 04:32:00,
2013-06-26 21:37:00,63.0,58.4,30.03,SSE,158,0.0,0.0,85,0.00,,---,30.11,VWS V14.01,2013-06-27 04:37:00,
2013-06-26 21:42:00,62.6,58.0,30.03,SSE,158,0.0,0.0,85,0.00,,---,30.11,VWS V14.01,2013-06-27 04:42:00,
2013-06-26 21:47:00,62.6,58.0,30.03,South,180,0.0,0.0,85,0.00,,---,30.11,VWS V14.01,2013-06-27 04:47:00,
2013-06-26 21:52:00,62.4,58.5,30.03,South,180,0.0,0.0,87,0.00,,---,30.11,VWS V14.01,2013-06-27 04:52:00,
2013-06-26 21:57:00,62.2,58.3,30.06,South,180,0.0,0.0,87,0.00,,---,30.11,VWS V14.01,2013-06-27 04:57:00,
2013-06-26 22:02:00,62.1,58.5,30.06,South,180,0.0,0.0,88,0.00,,---,30.11,VWS V14.01,2013-06-27 05:02:00,
2013-06-26 22:07:00,61.9,58.0,30.06,South,180,0.0,0.0,87,0.00,,---,30.11,VWS V14.01,2013-06-27 05:07:00,
2013-06-26 22:12:00,61.9,58.3,30.06,South,180,0.0,0.0,88,0.00,,---,30.11,VWS V14.01,2013-06-27 05:12:00,
2013-06-26 22:17:00,61.7,58.1,30.06,South,180,0.0,0.0,88,0.00,,---,30.11,VWS V14.01,2013-06-27 05:17:00,
2013-06-26 22:22:00,61.7,58.4,30.06,South,180,0.0,0.0,89,0.00,,---,30.11,VWS V14.01,2013-06-27 05:22:00,
2013-06-26 22:27:00,61.5,58.6,30.03,South,180,0.0,0.0,90,0.00,,---,30.11,VWS V14.01,2013-06-27 05:27:00,
2013-06-26 22:33:00,61.5,58.6,30.03,South,180,0.0,0.0,90,0.00,,---,30.11,VWS V14.01,2013-06-27 05:33:00,
2013-06-26 22:38:00,61.3,58.4,30.03,South,180,0.0,0.0,90,0.00,,---,30.11,VWS V14.01,2013-06-27 05:38:00,
2013-06-26 22:42:00,61.3,58.4,30.03,South,180,0.0,0.0,90,0.00,,---,30.11,VWS V14.01,2013-06-27 05:42:00,
2013-06-26 22:48:00,61.2,58.5,30.03,South,180,0.0,0.0,91,0.00,,---,30.11,VWS V14.01,2013-06-27 05:48:00,
2013-06-26 22:53:00,61.2,58.5,30.03,South,180,0.0,0.0,91,0.00,,---,30.11,VWS V14.01,2013-06-27 05:53:00,
2013-06-26 22:58:00,61.0,58.3,30.06,South,180,0.0,0.0,91,0.00,,---,30.11,VWS V14.01,2013-06-27 05:58:00,
2013-06-26 23:03:00,61.0,58.3,30.06,South,180,0.0,0.0,91,0.00,,---,30.11,VWS V14.01,2013-06-27 06:03:00,
2013-06-26 23:08:00,60.8,58.5,30.06,South,180,0.0,0.0,92,0.00,,---,30.11,VWS V14.01,2013-06-27 06:08:00,
2013-06-26 23:13:00,60.8,58.5,30.06,South,180,0.0,0.0,92,0.00,,---,30.11,VWS V14.01,2013-06-27 06:13:00,
2013-06-26 23:18:00,60.8,58.8,30.06,South,180,0.0,0.0,93,0.00,,---,30.11,VWS V14.01,2013-06-27 06:18:00,
2013-06-26 23:23:00,60.6,58.6,30.06,South,180,0.0,0.0,93,0.00,,---,30.11,VWS V14.01,2013-06-27 06:23:00,
2013-06-26 23:28:00,60.6,58.6,30.06,South,180,0.0,0.0,93,0.00,,---,30.11,VWS V14.01,2013-06-27 06:28:00,
2013-06-26 23:33:00,60.6,58.6,30.06,South,180,0.0,0.0,93,0.00,,---,30.11,VWS V14.01,2013-06-27 06:33:00,
2013-06-26 23:38:00,60.4,58.7,30.06,South,180,0.0,0.0,94,0.00,,---,30.11,VWS V14.01,2013-06-27 06:38:00,
2013-06-26 23:43:00,60.4,58.7,30.06,South,180,0.0,0.0,94,0.00,,---,30.11,VWS V14.01,2013-06-27 06:43:00,
2013-06-26 23:48:00,60.4,58.7,30.06,South,180,0.0,0.0,94,0.00,,---,30.11,VWS V14.01,2013-06-27 06:48:00,
2013-06-26 23:53:00,60.4,58.7,30.06,South,180,0.0,0.0,94,0.00,,---,30.11,VWS V14.01,2013-06-27 06:53:00,
2013-06-26 23:58:00,60.3,58.5,30.09,South,180,0.0,0.0,94,0.00,,---,0.00,VWS V14.01,2013-06-27 06:58:00,